CAPE
238 843 1214 845 608 343 127 30 69 66 7 2 1 2 0 0 0 0 0 0 0 1 0 0 0 0 67 46 22 20 0 0 0 0 0 0 0 0 0 0 0 0 0
526 753 1178 980 663 246 102 10 0 1 3 19 10 23 10 0 0 0 0 0 0 0 22 26 49 0 52 40 24 31 0 0 0 0 0 0 0 0 0 4 0 0 0
775 810 929 636 328 229 164 71 39 0 0 0 3 16 44 14 0 0 0 0 0 0 0 3 12 53 44 23 12 19 1 0 0 0 0 0 0 0 0 0 0 0 0
572 823 917 521 228 203 137 98 38 0 0 1 2 21 16 0 0 0 0 0 0 0 0 0 0 3 1 0 0 0 0 0 0 0 0 0 0 0 0 0 0 2 10
637 845 884 548 295 233 116 58 17 0 0 0 0 0 0 0 0 0 0 0 0 0 0 0 0 0 0 0 0 0 0 0 0 0 0 0 0 0 0 0 0 1 3
642 885 818 545 389 212 117 58 11 0 0 0 0 0 0 0 0 0 0 0 0 0 0 0 0 0 0 0 0 0 0 0 0 14 6 4 1 0 1 0 0 0 0
662 1178 1042 661 493 288 153 105 41 0 0 0 0 5 3 4 0 0 0 0 0 0 0 0 0 0 0 0 0 1 2 0 0 11 11 11 10 0 2 2 12 30 14
685 905 1045 894 645 407 322 165 111 54 0 0 0 0 12 12 10 0 0 0 0 0 0 0 0 0 0 0 0 0 0 0 0 8 9 12 0 0 36 44 82 173 212
738 706 973 1048 815 548 495 281 193 128 51 0 0 0 3 1 12 24 7 0 0 0 0 0 0 0 0 0 0 0 0 0 0 13 10 23 0 30 78 80 69 39 81
861 679 844 941 954 771 729 436 321 225 106 0 0 11 2 0 14 52 3 0 0 0 0 0 0 0 0 0 0 0 0 0 0 7 12 0 0 0 1 0 0 0 4
873 745 741 858 902 835 885 704 455 331 156 31 0 6 0 8 71 17 8 0 0 0 0 0 0 0 0 0 0 0 0 4 4 7 2 0 0 0 0 0 0 0 0
936 874 787 922 943 976 1086 970 709 541 246 65 0 0 0 1 19 27 0 0 0 0 0 0 0 0 0 17 3 0 0 0 0 0 0 0 0 0 0 0 0 0 1
837 1027 956 1053 999 860 910 1149 899 773 477 222 7 0 0 0 0 0 0 0 0 0 1 0 2 1 0 0 0 0 0 0 0 0 0 0 0 0 0 0 0 0 0
569 870 1060 1077 1163 1100 1129 860 953 984 615 376 145 0 0 0 0 0 0 2 0 2 17 11 0 0 0 0 0 0 0 0 0 0 0 0 0 0 0 0 0 0 0
270 580 892 1037 1189 1342 1281 1130 950 801 646 438 308 4 0 7 12 9 0 0 8 5 0 0 0 0 0 0 0 0 0 0 0 0 0 0 0 0 0 0 0 0 0
170 289 565 938 1112 1303 1408 1246 1150 921 716 543 374 108 51 73 79 34 35 0 0 0 0 0 0 0 0 0 0 0 0 0 0 0 0 0 0 0 0 0 0 0 0
0 104 131 494 878 1155 1294 1285 1215 1044 848 641 478 194 146 158 106 46 0 0 0 0 0 0 0 0 0 0 0 0 0 0 0 0 0 0 0 0 0 0 0 0 0
0 0 0 0 305 845 1092 1351 1166 1222 978 808 657 386 234 181 127 0 0 0 0 0 0 0 0 0 0 0 0 0 0 0 0 0 0 0 0 0 0 0 0 0 0
0 0 0 0 0 56 747 1135 1255 1253 1001 963 825 566 347 225 8 0 0 0 0 0 0 0 0 0 0 0 0 0 0 0 0 0 0 0 0 0 0 0 0 0 0
0 0 0 0 0 0 180 961 1136 1146 1105 1079 948 622 541 61 0 0 0 0 0 0 0 0 0 0 0 0 0 0 0 0 0 0 0 0 0 0 0 0 0 0 0
0 0 0 0 0 0 190 668 993 1134 1067 945 918 593 172 0 0 0 0 0 0 0 0 0 0 0 0 0 0 0 0 0 0 0 0 0 0 0 0 0 0 0 0
0 0 0 0 0 17 285 623 895 941 227 35 0 0 0 0 0 0 0 0 0 0 0 0 0 0 0 0 0 0 0 0 0 0 0 0 0 0 0 0 0 0 0
0 0 0 0 0 83 299 624 738 0 0 0 0 0 0 0 0 0 0 0 0 0 0 0 0 0 0 0 0 0 0 0 0 0 0 0 0 0 0 0 0 0 0
0 0 0 0 0 133 419 458 251 0 0 0 0 0 0 0 0 0 0 0 0 0 0 0 0 0 0 0 0 0 0 0 0 0 0 0 0 0 0 0 0 0 0
0 0 0 0 0 161 298 352 9 0 0 0 0 0 0 0 0 0 0 0 0 0 0 0 0 0 0 0 0 0 0 0 0 0 0 0 0 0 0 0 0 0 0
0 0 0 0 0 88 190 0 0 0 0 0 0 0 0 0 0 0 0 0 0 0 0 0 0 0 0 0 0 0 0 0 0 0 0 0 0 0 0 0 0 0 0
CIN
-216 -180 -95 -119 -138 -167 -200 -243 -170 -141 -0 -0 0 -0 0 0 0 0 0 0 0 -0 0 0 0 0 -0 -0 -0 -21 0 0 0 0 0 0 0 0 0 0 0 0 0
-187 -202 -113 -110 -141 -182 -190 -124 0 0 -14 0 0 0 0 -0 0 0 0 0 0 0 -0 0 0 0 -0 -1 -1 -15 0 0 0 0 0 0 0 0 0 0 0 0 0
-148 -175 -145 -158 -191 -195 -168 -179 -173 0 0 0 0 0 0 -0 0 0 0 0 0 0 0 -6 -2 -0 -0 -1 -5 -18 -7 0 0 0 0 0 0 0 0 0 0 0 0
-164 -152 -128 -183 -218 -202 -202 -182 -216 0 0 -0 -0 -0 -0 0 0 0 0 0 0 0 0 0 0 0 -0 -0 -15 0 0 0 0 0 0 0 0 0 0 0 0 0 -0
-145 -119 -133 -164 -185 -176 -199 -237 -291 0 0 0 0 0 0 0 0 0 0 0 0 0 0 0 0 0 0 0 0 0 0 0 0 0 0 0 0 0 0 0 0 -1 -0
-137 -88 -166 -181 -193 -199 -216 -249 -314 0 0 0 0 0 0 0 0 0 0 0 0 0 0 0 0 0 0 0 0 0 0 0 0 -1 -0 -1 -1 0 0 -0 0 0 0
-119 -73 -118 -151 -160 -193 -197 -212 -253 -9 0 0 0 0 -0 -0 0 0 0 0 0 0 0 0 0 0 0 0 0 -1 -2 0 0 -0 -1 -0 -4 0 -34 -12 -278 -221 -303
-104 -98 -112 -106 -130 -155 -143 -162 -176 -215 0 0 0 0 -0 -2 -1 0 0 0 0 0 0 0 0 0 0 0 0 0 0 0 0 0 -1 0 0 0 -152 -164 -135 -80 -66
-102 -116 -108 -82 -90 -130 -111 -128 -133 -142 -225 0 0 0 -224 -30 -151 -167 -8 0 0 0 0 0 0 0 0 0 0 0 0 0 0 -0 -0 -2 0 -183 -122 -115 -150 -203 -146
-100 -116 -82 -89 -82 -92 -78 -109 -113 -124 -182 0 0 -282 -241 0 -211 -126 -7 0 0 0 0 0 0 0 0 0 0 0 0 0 -0 -0 -4 0 0 0 -0 0 0 0 -289
-82 -90 -76 -75 -87 -75 -63 -67 -93 -117 -167 -309 0 -288 0 -104 -129 -221 -238 0 0 0 0 0 0 0 0 0 0 0 0 -1 -0 -3 -2 0 0 0 0 0 0 0 0
-63 -72 -73 -47 -57 -62 -44 -52 -61 -87 -144 -243 0 0 0 -0 -223 -60 0 0 0 0 0 0 0 0 0 -4 -28 0 -2 0 0 0 0 0 0 0 0 0 0 0 0
-52 -42 -54 -30 -26 -43 -45 -47 -38 -51 -95 -136 -70 0 0 0 0 0 0 0 0 0 -1 0 -8 -3 -0 0 0 0 0 0 0 0 0 0 0 0 0 0 0 0 0
-35 -47 -52 -31 -17 -7 -15 -36 -33 -30 -75 -104 -155 0 0 0 0 0 -0 -0 0 -1 -1 -1 0 0 0 0 0 0 0 0 0 0 0 0 0 0 0 0 0 0 0
-43 -45 -46 -41 -26 -27 -12 -5 -9 -32 -55 -83 -92 -100 0 -245 -225 -208 -0 -0 0 -1 0 0 0 0 0 0 0 0 0 0 0 0 0 0 0 0 0 0 0 0 0
-55 -59 -46 -45 -27 -25 -36 -52 -14 -7 -40 -55 -69 -157 -178 -142 -118 -156 -157 -35 0 0 0 0 0 0 0 0 0 0 0 0 0 0 0 0 0 0 0 0 0 0 0
-3 -57 -68 -53 -38 -30 -36 -56 -52 -5 -17 -48 -46 -112 -114 -91 -116 -154 0 0 0 0 0 0 0 0 0 0 0 0 0 0 0 0 0 0 0 0 0 0 0 0 0
0 0 0 0 -73 -42 -31 -38 -62 -14 -11 -28 -23 -49 -83 -93 -109 0 0 0 0 0 0 0 0 0 0 0 0 0 0 0 0 0 0 0 0 0 0 0 0 0 0
0 0 0 0 0 -114 -56 -24 -35 -7 -5 -20 -3 -18 -48 -77 -62 0 0 0 0 0 0 0 0 0 0 0 0 0 0 0 0 0 0 0 0 0 0 0 0 0 0
0 0 0 0 0 0 -102 -49 -17 -1 -2 -7 -2 -10 -11 -130 0 0 0 0 0 0 0 0 0 0 0 0 0 0 0 0 0 0 0 0 0 0 0 0 0 0 0
0 0 0 0 0 0 -122 -77 -44 -4 -10 -12 -6 -20 -79 0 0 0 0 0 0 0 0 0 0 0 0 0 0 0 0 0 0 0 0 0 0 0 0 0 0 0 0
0 0 0 0 0 -172 -118 -90 -48 -13 -209 -242 0 0 0 0 0 0 0 0 0 0 0 0 0 0 0 0 0 0 0 0 0 0 0 0 0 0 0 0 0 0 0
0 0 0 0 0 -166 -109 -88 -38 0 0 0 0 0 0 0 0 0 0 0 0 0 0 0 0 0 0 0 0 0 0 0 0 0 0 0 0 0 0 0 0 0 0
0 0 0 0 0 -116 -107 -125 -199 -11 0 0 0 0 0 0 0 0 0 0 0 0 0 0 0 0 0 0 0 0 0 0 0 0 0 0 0 0 0 0 0 0 0
0 0 0 0 0 -120 -137 -140 -131 0 0 0 0 0 0 0 0 0 0 0 0 0 0 0 0 0 0 0 0 0 0 0 0 0 0 0 0 0 0 0 0 0 0
0 0 0 0 0 -147 -162 0 0 0 0 0 0 0 0 0 0 0 0 0 0 0 0 0 0 0 0 0 0 0 0 0 0 0 0 0 0 0 0 0 0 0 0
Wind_Speed
7 8 8 8 9 10 10 11 10 10 11 11 11 11 12 13 14 15 16 17 16 17 14 17 14 10 10 10 12 14 15 16 18 19 20 20 19 20 20 20 20 20 18
6 8 7 8 8 9 10 10 10 10 11 11 11 11 11 12 14 15 15 15 15 15 14 17 16 8 10 11 13 14 15 17 18 20 21 19 18 20 21 22 21 20 20
5 7 8 8 8 9 10 9 10 10 11 11 11 11 11 12 13 15 14 15 15 14 14 15 15 13 11 12 14 16 17 18 19 21 20 19 19 19 21 23 22 20 20
5 6 6 7 7 8 9 10 10 10 11 11 11 12 11 12 13 14 14 14 15 14 14 13 13 13 14 14 16 17 19 19 19 19 21 21 21 20 22 22 22 20 19
5 5 6 7 7 8 9 9 10 10 11 11 11 11 11 12 12 13 13 15 15 15 14 13 14 14 15 16 17 18 18 19 19 19 20 20 21 21 22 22 21 21 21
4 4 6 5 6 7 8 9 10 10 11 11 11 12 12 12 12 13 13 14 15 15 14 13 14 15 16 16 17 17 17 19 20 18 20 19 20 22 23 23 22 22 21
2 3 4 4 5 6 7 8 9 10 10 10 9 10 11 11 12 12 13 14 14 14 14 14 15 15 16 17 17 18 18 19 20 20 21 21 20 23 23 23 23 23 22
2 3 2 2 3 4 5 7 8 9 10 9 9 10 11 13 12 11 13 14 14 14 15 15 16 16 17 17 18 18 19 20 21 19 21 21 21 24 25 25 26 27 25
5 5 2 1 2 3 4 6 7 8 9 9 8 9 11 14 13 9 12 13 14 14 15 15 16 16 17 17 18 19 19 20 20 21 22 21 25 26 25 25 24 26 25
6 5 3 1 1 3 4 4 6 7 8 9 9 10 11 13 13 9 10 12 13 14 15 16 16 16 16 17 18 19 20 19 18 22 21 22 26 26 26 25 26 25 25
7 5 4 3 2 2 2 3 5 6 7 9 8 8 9 10 10 9 13 13 14 15 15 16 16 17 17 15 17 19 19 20 22 22 21 25 26 26 26 25 25 25 26
8 6 5 5 3 3 4 3 5 6 7 8 7 6 7 10 12 12 13 13 14 14 15 16 17 17 16 15 16 17 20 22 23 23 22 25 26 26 25 25 25 24 24
11 8 7 6 5 5 6 4 6 7 8 9 7 6 7 9 12 12 12 13 13 14 14 15 15 17 19 20 21 21 22 22 23 23 22 25 26 26 25 24 24 25 26
11 11 9 7 7 7 6 7 8 7 8 9 8 6 8 9 9 10 13 14 16 15 16 18 17 19 20 20 21 22 22 23 24 24 22 25 25 23 23 22 24 25 26
13 11 11 10 8 8 9 10 8 9 8 7 8 6 6 7 8 10 13 13 15 17 17 17 18 19 20 21 22 23 23 23 25 24 22 24 23 21 21 22 23 25 26
16 14 13 12 10 9 9 11 13 9 9 9 8 6 5 7 8 10 12 15 16 17 17 18 19 20 21 22 23 24 23 24 25 23 21 21 21 20 21 22 23 25 26
19 17 15 14 13 11 11 12 12 13 11 9 9 5 4 7 9 10 11 13 15 16 16 17 18 20 22 24 25 24 25 25 25 22 20 18 17 20 21 22 24 26 27
21 19 17 17 16 14 13 11 13 13 11 10 10 6 6 7 8 9 10 13 15 16 17 17 19 20 23 25 25 24 24 24 23 20 19 18 20 19 19 22 25 27 28
21 21 20 17 17 17 16 14 12 12 11 10 10 7 7 9 8 10 11 12 14 16 17 17 19 21 23 25 26 24 24 23 20 19 18 18 20 21 23 23 25 28 29
28 25 21 18 19 18 18 15 15 13 12 11 11 10 8 9 9 10 11 12 14 15 16 17 18 20 23 26 27 26 24 22 19 18 18 19 20 22 23 26 28 29 32
32 26 23 22 21 18 17 17 17 17 15 12 13 10 8 7 9 9 11 12 14 15 15 16 18 21 24 27 27 27 23 21 21 19 18 21 22 23 25 26 29 31 31
32 32 29 25 22 20 18 18 17 15 15 14 14 10 9 7 9 9 10 12 13 14 14 16 19 21 23 27 27 27 28 24 23 21 20 25 23 25 26 29 32 33 32
33 35 31 28 23 22 20 17 14 12 15 18 15 12 10 9 9 9 10 11 12 13 15 17 19 22 24 24 27 27 30 29 32 24 23 24 25 27 29 31 31 32 33
31 33 33 30 26 23 21 19 16 16 16 18 14 11 9 8 8 8 8 10 11 12 14 17 19 22 24 26 25 26 27 28 31 33 25 26 29 30 32 33 32 33 34
35 32 32 31 28 24 22 20 18 16 13 13 12 11 9 9 8 8 8 10 11 12 13 16 19 22 23 25 27 28 29 28 27 29 36 31 34 33 34 33 32 35 34
36 33 29 30 28 25 22 21 19 16 11 11 13 12 10 8 7 7 8 9 10 11 13 16 19 22 24 25 27 28 29 30 31 32 36 38 39 36 35 36 34 34 34
Wind_Direction
23 64 58 56 45 39 26 21 23 22 18 16 13 10 5 356 350 344 340 335 335 331 341 329 330 352 6 20 18 11 359 352 348 344 342 345 343 340 340 342 342 345 350
65 76 64 59 46 26 13 19 19 16 13 13 11 16 17 11 2 353 346 344 342 337 341 332 333 16 6 9 5 9 0 354 347 341 336 344 352 344 339 337 339 339 344
60 75 78 67 46 27 17 14 8 7 4 3 6 9 23 22 6 360 1 356 347 340 340 342 354 360 20 16 3 357 353 350 346 339 338 343 345 347 338 335 340 341 340
59 65 69 64 39 27 21 17 10 3 360 3 3 12 23 13 8 4 1 354 347 341 338 347 357 2 2 360 355 348 345 343 345 345 338 338 337 347 338 336 336 342 342
62 69 75 66 42 29 25 18 13 8 7 9 15 11 12 14 13 12 4 355 353 352 349 346 348 349 352 351 348 347 346 346 345 346 344 346 340 346 340 339 339 339 339
54 57 77 67 51 37 24 16 12 11 8 10 23 34 38 26 16 15 9 2 359 357 358 354 349 347 347 347 349 351 353 347 340 349 346 352 349 344 341 341 338 337 338
32 36 45 61 48 42 30 18 13 8 10 17 21 15 15 15 15 13 8 4 3 2 360 357 354 352 348 346 348 347 349 345 341 341 341 341 345 341 338 338 339 338 337
322 343 29 53 42 34 26 26 14 8 8 14 15 12 2 351 351 13 11 6 4 4 2 357 352 348 348 347 347 346 344 342 338 344 343 341 341 336 333 331 328 325 328
303 309 342 350 13 13 4 8 8 5 4 4 7 359 348 341 346 21 16 10 6 2 358 355 353 352 351 350 347 345 344 344 343 342 336 339 332 331 333 334 337 335 340
296 298 306 292 316 321 335 353 354 354 357 358 354 347 344 343 346 13 12 6 0 355 349 345 349 350 351 350 348 346 343 348 353 339 342 339 332 330 331 333 333 336 339
292 289 292 279 278 300 325 335 338 341 345 351 351 349 345 347 354 8 347 355 350 345 342 342 343 344 349 0 358 352 351 348 342 339 341 335 331 331 333 335 336 336 337
284 279 280 279 271 271 296 303 311 322 328 340 352 3 358 341 332 335 339 340 342 342 342 342 343 347 353 357 2 359 349 342 337 335 338 334 331 330 332 335 336 341 341
280 279 274 272 270 276 290 286 301 304 313 319 339 357 356 345 333 325 333 332 337 338 340 345 345 342 340 341 340 343 343 342 337 336 340 337 334 330 332 336 339 337 335
275 274 273 270 273 276 275 285 290 295 307 310 323 333 340 342 341 337 330 328 325 331 330 331 336 337 339 340 340 339 342 339 334 334 342 338 337 339 339 341 339 338 336
277 274 272 270 270 274 278 285 285 288 296 304 312 318 333 341 344 338 331 331 329 325 328 331 334 334 334 336 339 339 341 337 332 334 338 341 342 347 347 345 343 341 339
275 272 271 268 267 269 272 278 285 286 288 299 302 307 319 331 337 337 333 326 328 326 326 328 330 331 333 335 335 337 339 333 331 334 337 345 346 348 348 347 344 342 340
272 271 269 268 267 267 269 275 277 283 283 286 290 293 296 318 325 332 333 329 329 331 332 330 331 331 331 333 334 338 337 332 330 336 340 345 351 348 345 344 343 339 335
270 270 269 270 268 267 271 272 276 276 277 276 280 282 287 305 317 320 329 326 330 332 331 330 330 330 331 333 335 341 340 336 336 339 343 344 342 345 346 342 338 335 332
262 265 266 263 266 268 269 273 273 269 271 265 269 274 277 294 301 310 314 322 327 330 330 331 332 331 330 332 336 341 341 340 342 343 344 345 343 339 337 339 337 332 331
264 264 263 257 262 265 269 268 273 272 269 267 266 276 277 289 293 303 309 316 324 328 329 332 333 337 335 334 333 336 341 344 344 344 344 341 340 338 336 334 332 331 328
259 257 254 258 259 260 262 264 268 270 272 273 275 275 278 284 290 299 305 312 319 322 327 333 334 332 334 337 335 336 339 345 342 341 342 338 336 336 334 333 332 330 329
257 257 256 253 252 254 260 263 267 268 275 276 279 283 284 283 290 298 303 310 319 321 326 331 331 333 336 339 336 336 332 336 342 341 338 334 335 334 333 331 330 329 328
259 256 254 252 249 249 254 257 260 272 274 272 271 277 281 283 288 295 309 319 322 320 322 329 333 333 334 340 341 336 331 329 330 336 334 334 334 332 331 330 329 329 328
257 257 254 250 248 247 247 247 244 261 260 265 259 271 275 282 290 297 309 321 325 325 325 328 335 335 336 335 338 340 337 334 330 327 335 333 331 329 328 328 327 327 327
264 255 253 251 246 242 241 246 249 259 262 256 258 259 269 281 292 302 308 319 324 327 330 331 332 335 337 335 335 334 334 334 332 328 325 329 327 329 327 327 325 324 323
263 261 249 248 244 239 236 244 246 247 242 245 249 253 260 268 283 300 314 322 326 330 331 333 335 335 335 335 335 335 334 333 330 328 325 324 324 327 327 325 325 325 323